Tracking 29892 objects as of 21-Nov-2024
HD Live streaming from Space Station
objects crossing your sky now

CZ-6A DEB

Track CZ-6A DEB now!
10-day predictions


NORAD ID: 54505
Int'l Code: 2022-151JH
Perigee: 732.7 km
Apogee: 838.4 km
Inclination: 99.0 °
Period: 100.4 minutes
Semi major axis: 7156 km
RCS: Unknown
Launch date: November 11, 2022
Source: People's Republic of China (PRC)
Launch site: Taiyaun Space Center, China (TSC)

Note: This is SATELLITE DEBRIS
Your satellite tracking list
Your tracking list is empty




NASA's NSSDC Master Catalog

Two Line Element Set (TLE):
1 54505U 22151JH  24325.58505216  .00007287  00000-0  25461-2 0  9992
2 54505  98.9682   5.0028 0073866 335.2697  24.4952 14.33988838105381
Source of the keplerian elements: AFSPC